Regional Weather Roundup
Issued by NWS Little Rock, AR

Home | Current Version | Previous Version | Graphics & Text | Print | Product List | Glossary On
Versions: 1 2 3 4 5 6 7 8 9 10 11 12 13 14 15 16 17 18 19 20 21 22 23 24 25 26 27 28 29 30 31 32
000
ASUS44 KLZK 100405
RWRLZK

WEATHER ROUNDUP FOR ARKANSAS
NATIONAL WEATHER SERVICE LITTLE ROCK AR
1000 PM CST SAT DEC 09 2017

NOTE: "FAIR" INDICATES FEW OR NO CLOUDS BELOW 12,000 FEET WITH NO
SIGNIFICANT WEATHER AND/OR OBSTRUCTIONS TO VISIBILITY.

ARZ001-003-010-029-100500-
NORTHWEST ARKANSAS

CITY           SKY/WX    TMP DP  RH WIND       PRES   REMARKS
FAYETTEVILLE   CLEAR     24  20  84 CALM      30.28R
FORT SMITH     CLEAR     32  23  69 W3        30.30R
HARRISON       CLEAR     34  19  54 W6        30.24S WCI  29
BENTONVILLE    CLEAR     30  21  69 CALM      30.28S
ROGERS         CLEAR     34  19  54 W3        30.27R
SILOAM SPGS    CLOUDY    31  21  66 W3        30.28R
HIGHFILL       CLEAR     30  21  69 W6        30.27R WCI  24
$$

ARZ004-005-016-100500-
NORTH CENTRAL ARKANSAS

CITY           SKY/WX    TMP DP  RH WIND       PRES   REMARKS
BATESVILLE     CLEAR     33  20  58 CALM      30.27R
FLIPPIN        CLEAR     30  19  63 SW5       30.26S WCI  25
MTN HOME       CLEAR     33  19  56 CALM      30.23F
$$

ARZ040-041-100500-
WEST CENTRAL ARKANSAS

CITY           SKY/WX    TMP DP  RH WIND       PRES   REMARKS
MENA           CLEAR     32  27  80 CALM      30.28R
MOUNT IDA      CLEAR     31  24  75 CALM      30.25R
$$

ARZ009-017-025-026-028-100500-
NORTHEAST ARKANSAS

CITY           SKY/WX    TMP DP  RH WIND       PRES   REMARKS
JONESBORO      CLEAR     32  23  69 W5        30.25R WCI  27
NEWPORT        CLEAR     34  20  56 NW6       30.27R WCI  29
WALNUT RIDGE   CLEAR     33  19  56 CALM      30.25R
BLYTHEVILLE    CLEAR     30  23  75 NW8       30.24R WCI  22
$$

ARZ022-023-033-042-044-100500-
CENTRAL ARKANSAS

CITY           SKY/WX    TMP DP  RH WIND       PRES   REMARKS
LITTLE ROCK    CLEAR     38  22  52 NW7       30.29R
N LITTLE ROCK    N/A     40  21  47 CALM      30.32R
JACKSONVILLE   CLEAR     27  21  77 NW3       30.27R
SEARCY         CLEAR     30  24  78 W3        30.29R
HOT SPRINGS    CLEAR     36  26  67 CALM      30.28R
RUSSELLVILLE   CLEAR     29  23  78 CALM      30.28R
CLINTON        FAIR      25  21  86 CALM      30.29R
$$

ARZ036-100500-
EAST ARKANSAS

CITY           SKY/WX    TMP DP  RH WIND       PRES   REMARKS
WEST MEMPHIS   PTCLDY    28  26  92 CALM      30.25R
$$

ARZ050-053-066-070-073-100500-
SOUTHWEST ARKANSAS

CITY           SKY/WX    TMP DP  RH WIND       PRES   REMARKS
CAMDEN         CLEAR     36  21  55 CALM      30.29R
TEXARKANA      CLEAR     39  25  57 CALM      30.30R
EL DORADO      CLEAR     39  25  57 NW6       30.29R
DE QUEEN       CLEAR     30  27  88 CALM      30.28S
$$

ARZ056-057-069-100500-
SOUTHEAST ARKANSAS

CITY           SKY/WX    TMP DP  RH WIND       PRES   REMARKS
PINE BLUFF     CLEAR     35  23  61 NW3       30.29R
STUTTGART      CLEAR     35  23  61 NW9       30.28R WCI  28
MONTICELLO     CLEAR     37  23  56 W3        30.28R

$$






USA.gov is the U.S. government's official web portal to all federal, state and local government web resources and services.